sat.trackr.live / text

‹ back to catalog

STARLINK-5325

NORAD 55292 · 2023-010Z

PAYLOAD ACTIVE UNKNOWN

§ Identity

Operator
Country
US
Launch date
2023-01-19
Launch site
AFWTR
Launch vehicle
Mass (kg)
RCS (m²)

Purposes: comms

External: N2YO · Heavens-Above · Gunter

§ Orbital elements

Epoch: 2026-09-20T09:14:23.060832Z

Period
96.11 min
Inclination
69.9983°
Eccentricity
0.0003182
Mean motion
14.98329131 rev/d
Perigee alt
569.8 km
Apogee alt
574.3 km
Semi-major
6,950.2 km
B*
7.4896e-6
RAAN
253.5165°
Arg perigee
271.6220°
Mean anomaly
88.4574°
Rev number
20,243

§ Raw data

STARLINK-53251 55292U 23010Z   26263.38498913 -.00000004  00000+0  74896-5 0  99962 55292  69.9983 253.5165 0003182 271.6220  88.4574 14.98329131202438

JSON: /api/v1/satellites/55292 · /tle

For live sub-satellite position, see the globe view (requires WebGL).

§ Visibility from observer

Set your observer location to see the next 7 days of passes ≥ 10°. The values pass through the URL so the page stays shareable.

No JS? Fill the form by hand. The geolocation button needs JavaScript.